User: anonymous
Location: NJAA Observatory
(40.6819°N, 74.8979°W)
Time: 02:32:33
(UTC-04:00)
Language:

Meteor 1-28 Rocket - Orbit

View from above orbital plane
View from above orbital plane
View from above satellite
View from above satellite

Ground track
Ground track

The orbit data is extracted from the following two-line orbital elements,

1 10114U 77057B   14212.76112967  .00001235  00000-0  72305-4 0  3066
2 10114 097.2657 070.9948 0015634 033.1734 327.0475 15.13488915 24304
Epoch (UTC): 31 July 2014 18:16:01
Eccentricity: 0.0015634
inclination: 97.2657°
perigee height: 515 km
apogee height: 536 km
right ascension of ascending node: 70.9948°
argument of perigee: 33.1734°
revolutions per day: 15.13488915
mean anomaly at epoch: 327.0475°
orbit number at epoch: 2430

The dashed part of the orbit path shows where the satellite is in the earth's shadow,  

DLR